This is the latest recevied weather packets stored in our database for station/object K9VSK-9. If no packets are shown the sender has not sent any weather packets the latest 10 day(s).
| Time | Temp. | Humidity | Pressure | Rain* | Wind** | Luminosity | Snow |
|---|---|---|---|---|---|---|---|
| 1787699844 | 24.44° C | 76% | 1017.7 hPa | 0 mm | - | - | - |
| 1787699543 | 24.44° C | 76% | 1017.7 hPa | 0 mm | - | - | - |
| 1787698642 | 25° C | 74% | 1017.7 hPa | 0 mm | - | - | - |
| 1787698342 | 25° C | 74% | 1017.8 hPa | 0 mm | - | - | - |
| 1787698042 | 25° C | 69% | 1017.8 hPa | 0 mm | - | - | - |
| 1787697741 | 25° C | 70% | 1017.8 hPa | 0 mm | - | - | - |
| 1787697440 | 25° C | 70% | 1018 hPa | 0 mm | - | - | - |
| 1787697141 | 25° C | 69% | 1017.8 hPa | 0 mm | - | - | - |
| 1787696540 | 25° C | 70% | 1017.8 hPa | 0 mm | - | - | - |
| 1787696240 | 25° C | 69% | 1017.9 hPa | 0 mm | - | - | - |
| 1787695940 | 25° C | 68% | 1017.9 hPa | 0 mm | - | - | - |
| 1787695640 | 25° C | 68% | 1017.9 hPa | 0 mm | - | - | - |
| 1787695339 | 25° C | 68% | 1017.9 hPa | 0 mm | - | - | - |
| 1787694739 | 25.56° C | 66% | 1018 hPa | 0 mm | - | - | - |
| 1787693838 | 25.56° C | 66% | 1017.9 hPa | 0 mm | - | - | - |
| 1787693538 | 25.56° C | 67% | 1018.1 hPa | 0 mm | - | - | - |
| 1787693237 | 25.56° C | 64% | 1018 hPa | 0 mm | - | - | - |
| 1787692937 | 25.56° C | 67% | 1018.1 hPa | 0 mm | - | - | - |
| 1787692637 | 25.56° C | 66% | 1018.1 hPa | 0 mm | - | - | - |
| 1787692336 | 25.56° C | 67% | 1017.9 hPa | 0 mm | - | - | - |
| 1787691736 | 25.56° C | 69% | 1017.9 hPa | 0 mm | - | - | - |
| 1787691136 | 25.56° C | 68% | 1017.8 hPa | 0 mm | - | - | - |
| 1787690535 | 25.56° C | 67% | 1018 hPa | 0 mm | - | - | - |
| 1787690235 | 25.56° C | 67% | 1017.9 hPa | 0 mm | - | - | - |
| 1787689934 | 25.56° C | 67% | 1018 hPa | 0 mm | - | - | - |
* Rain latest hour (hover to see other rain measurements)
** Current wind speed in m/s (hover to see current wind gust speed)